User: anonymous
Location: Caltech
(34.1382°N, 118.1253°W)
Time: 23:11:12
(UTC-07:00)
Language:

Cosmos-2242 - Orbit

View from above orbital plane
View from above orbital plane
View from above satellite
View from above satellite

Ground track
Ground track

The orbit data is extracted from the following two-line orbital elements,

1 22626U 93024A   14113.80812646  .00002058  00000-0  23353-3 0   693
2 22626 082.5253 045.1678 0019007 340.0343 020.0128 14.85768780135196
Epoch (UTC): 23 April 2014 19:23:42
Eccentricity: 0.0019007
inclination: 82.5253°
perigee height: 598 km
apogee height: 624 km
right ascension of ascending node: 45.1678°
argument of perigee: 340.0343°
revolutions per day: 14.85768780
mean anomaly at epoch: 20.0128°
orbit number at epoch: 13519

The dashed part of the orbit path shows where the satellite is in the earth's shadow,  

DLR